Location: Unnamed
(33.0780°N, 97.0417°W)
Time: 15:37:56
(UTC-06:00)

Hubble Space Telescope - Pass Details

Date: 29 June 2020
Orbit: 536 x 539 km, 28.5° (Epoch: 01 March)

Event Time Altitude Azimuth Distance (km) Brightness Sun altitude
Exits shadow 04:25:22 42° 163° (SSE) 775 1.3 -20.2°
Drops below altitude 10° 04:28:59 10° 105° (ESE) 1,785 3.8 -19.6°
Sets 04:31:19 0° 98° (E) 2,675 4.8 -19.3°
